Weather History for Pensacola NAS, FL

Change the Weather History Date:

Thursday, January 10, 2013

  Actual Average Record
Temperature  
Mean Temperature 66 °F -  
Max Temperature 69 °F 59 °F - (-1)
Min Temperature 63 °F 40 °F - (-1)
Cooling Degree Days 1    
Growing Degree Days 16 (Base 50)    
Moisture  
Dew Point 66 °F    
Average Humidity 97    
Maximum Humidity 100    
Minimum Humidity 88    
Precipitation  
Precipitation 0.31 in - - ()
Sea Level Pressure  
Sea Level Pressure 30.20 in    
Wind  
Wind Speed 11 mph (ESE)    
Max Wind Speed 20 mph    
Max Gust Speed 28 mph    
Visibility 4 miles    
Events Fog , Rain    
Averages and records for this station are not official NWS values.
T = Trace of Precipitation, MM = Missing Value Source: NWS Daily Summary

Daily Weather History Graph

Daily Weather History Graph

Search for Another Location

Airport:

Trip Planner

Search our weather history database for the weather conditions in past years. The results will help you decide how hot, cold, wet, or windy it might be!

Date:

Astronomy

Jan. 10, 2013 Rise Set
Actual Time 6:47 AM CST 5:07 PM CST
Civil Twilight 6:20 AM CST 5:33 PM CST
Nautical Twilight 5:51 AM CST 6:02 PM CST
Astronomical Twilight 5:22 AM CST 6:31 PM CST
Moon 5:26 AM CST (1/10) 4:13 PM CST (1/10)
Length of Visible Light 11h 12m
Length of Day
10h 20m
Waning Crescent, 2% of the Moon is Illuminated
Jan 10
Waning Crescent
Jan 11
New
Jan 18
First Quarter
Jan 26
Full
Feb 3
Last Quarter

Hourly Weather History & Observations

Time (CST) Temp. Dew Point Humidity Pressure Visibility Wind Dir Wind Speed Gust Speed Precip Events Conditions
12:05 AM 64.4 °F 64.4 °F 100% 30.26 in 2.5 mi East 6.9 mph - N/A   Overcast
12:12 AM 64.4 °F 64.4 °F 100% 30.26 in 4.0 mi East 5.8 mph - N/A   Overcast
12:56 AM 64.0 °F 64.0 °F 100% 30.26 in 6.0 mi East 9.2 mph - N/A   Overcast
1:24 AM 64.4 °F 64.4 °F 100% 30.25 in 6.0 mi East 9.2 mph - N/A   Overcast
1:41 AM 64.4 °F 64.4 °F 100% 30.25 in 7.0 mi East 9.2 mph - N/A   Overcast
1:56 AM 64.9 °F 64.9 °F 100% 30.25 in 7.0 mi East 9.2 mph - N/A   Overcast
2:11 AM 64.4 °F 64.4 °F 100% 30.24 in 7.0 mi East 10.4 mph - N/A   Overcast
2:28 AM 64.4 °F 64.4 °F 100% 30.24 in 7.0 mi East 11.5 mph - N/A   Overcast
2:56 AM 64.9 °F 64.9 °F 100% 30.23 in 7.0 mi East 12.7 mph - N/A   Overcast
3:56 AM 64.9 °F 64.9 °F 100% 30.22 in 5.0 mi East 11.5 mph - N/A   Overcast
4:56 AM 66.0 °F 66.0 °F 100% 30.21 in 5.0 mi East 12.7 mph - N/A   Overcast
5:56 AM 66.0 °F 66.0 °F 100% 30.19 in 5.0 mi East 15.0 mph 21.9 mph N/A   Overcast
6:45 AM 66.2 °F 66.2 °F 100% 30.19 in 3.0 mi East 15.0 mph - N/A   Overcast
6:56 AM 66.0 °F 66.0 °F 100% 30.19 in 2.5 mi East 13.8 mph - N/A   Overcast
7:07 AM 66.2 °F 66.2 °F 100% 30.19 in 1.5 mi East 12.7 mph - N/A   Overcast
7:33 AM 66.2 °F 66.2 °F 100% 30.21 in 1.0 mi ESE 13.8 mph 20.7 mph N/A   Overcast
7:37 AM 66.2 °F 66.2 °F 100% 30.21 in 0.5 mi ESE 15.0 mph 24.2 mph N/A Fog Fog
7:56 AM 66.0 °F 66.0 °F 100% 30.23 in 0.5 mi East 11.5 mph - N/A Fog Fog
8:50 AM 66.2 °F 66.2 °F 100% 30.24 in 0.8 mi East 10.4 mph - N/A   Overcast
8:56 AM 66.9 °F 66.9 °F 100% 30.24 in 0.8 mi East 11.5 mph - N/A   Overcast
9:01 AM 66.2 °F 66.2 °F 100% 30.23 in 1.5 mi East 13.8 mph - N/A   Overcast
9:56 AM 68.0 °F 66.9 °F 96% 30.27 in 1.5 mi ESE 15.0 mph - N/A   Overcast
10:09 AM 68.0 °F 66.2 °F 94% 30.26 in 1.5 mi ESE 13.8 mph 21.9 mph N/A   Overcast
10:11 AM 68.0 °F 66.2 °F 94% 30.26 in 1.5 mi ESE 12.7 mph - N/A   Overcast
10:37 AM 68.0 °F 66.2 °F 94% 30.24 in 2.0 mi ESE 15.0 mph - N/A   Overcast
10:56 AM 68.0 °F 66.9 °F 96% 30.25 in 2.0 mi East 13.8 mph - N/A   Overcast
11:13 AM 69.8 °F 68.0 °F 94% 30.23 in 1.5 mi East 12.7 mph - N/A   Overcast
11:36 AM 68.0 °F 66.2 °F 94% 30.22 in 1.0 mi ESE 12.7 mph 24.2 mph N/A   Overcast
11:48 AM 68.0 °F 66.2 °F 94% 30.22 in 0.8 mi ESE 12.7 mph - 0.00 in   Overcast
11:56 AM 68.0 °F 68.0 °F 100% 30.22 in 0.8 mi East 15.0 mph 19.6 mph N/A   Overcast
12:16 PM 69.8 °F 68.0 °F 94% 30.20 in 1.0 mi ESE 15.0 mph - N/A   Overcast
12:29 PM 69.8 °F 68.0 °F 94% 30.19 in 1.0 mi ESE 15.0 mph - N/A   Overcast
12:49 PM 69.8 °F 68.0 °F 94% 30.18 in 1.0 mi East 15.0 mph - N/A   Overcast
12:56 PM 69.1 °F 68.0 °F 96% 30.19 in 1.0 mi ESE 15.0 mph - N/A   Overcast
1:02 PM 69.8 °F 66.2 °F 88% 30.18 in 0.8 mi East 16.1 mph 23.0 mph N/A   Overcast
1:21 PM 69.8 °F 68.0 °F 94% 30.18 in 1.2 mi ESE 13.8 mph 21.9 mph N/A   Overcast
1:56 PM 69.1 °F 66.9 °F 93% 30.18 in 1.2 mi ESE 12.7 mph - N/A   Overcast
2:56 PM 69.1 °F 66.9 °F 93% 30.18 in 2.0 mi ESE 10.4 mph - N/A   Overcast
3:17 PM 69.8 °F 66.2 °F 88% 30.17 in 4.0 mi ESE 11.5 mph - N/A   Overcast
3:56 PM 68.0 °F 66.9 °F 96% 30.17 in 4.0 mi ESE 15.0 mph - N/A   Overcast
4:56 PM 66.9 °F 66.9 °F 100% 30.15 in 3.0 mi ESE 16.1 mph - N/A   Overcast
5:05 PM 66.2 °F 66.2 °F 100% 30.17 in 5.0 mi Variable 4.6 mph 19.6 mph 0.00 in Rain Light Rain
5:10 PM 66.2 °F 64.4 °F 94% 30.19 in 1.5 mi West 11.5 mph 23.0 mph 0.20 in Rain Heavy Rain
5:21 PM 64.4 °F 62.6 °F 94% 30.18 in 2.0 mi West 3.5 mph - 0.30 in Rain Rain
5:28 PM 64.4 °F 62.6 °F 94% 30.18 in 6.0 mi Calm Calm - 0.31 in Rain Rain
5:56 PM 63.0 °F 62.1 °F 97% 30.18 in 7.0 mi South 11.5 mph - 0.31 in Rain Light Rain
6:56 PM 63.0 °F 62.1 °F 97% 30.18 in 10.0 mi SE 13.8 mph - N/A Rain Light Rain
7:56 PM 64.0 °F 63.0 °F 96% 30.17 in 10.0 mi SE 15.0 mph - N/A Rain Light Rain
8:15 PM 64.4 °F 62.6 °F 94% 30.14 in 10.0 mi ESE 18.4 mph 26.5 mph 0.00 in   Overcast
8:56 PM 64.0 °F 63.0 °F 96% 30.14 in 10.0 mi SE 16.1 mph - 0.00 in   Overcast
9:56 PM 64.0 °F 64.0 °F 100% 30.15 in 10.0 mi SE 16.1 mph - N/A   Mostly Cloudy
10:56 PM 64.9 °F 64.0 °F 97% 30.15 in 10.0 mi SE 12.7 mph 24.2 mph 0.00 in Rain Light Rain
11:56 PM 64.9 °F 64.0 °F 97% 30.07 in 10.0 mi ESE 19.6 mph 27.6 mph 0.00 in Rain Light Rain